DW8427 Weather Reports


time (UTC)temp
F
wind
direction
speed
knots
gust
knots
rain 1hr
in
rain 24hr
in
rain mn
in
humidity
%
barometer
mb
20260903163042 64 117 1.7 3.5 0.00 0.00 0.00 74 1014.7
20260903161538 63 151 2.6 6.1 0.00 0.00 0.00 75 1014.9
20260903160043 63 135 1.7 4.3 0.00 0.00 0.00 75 1015.0
20260903154538 63 140 1.7 5.2 0.00 0.00 0.00 76 1015.0
20260903153036 62 94 0.9 4.3 0.00 0.00 0.00 77 1015.2
20260903151534 61 108 1.7 6.1 0.00 0.00 0.00 78 1015.1
20260903150044 60 91 2.6 7.0 0.00 0.00 0.00 79 1015.0
20260903144538 60 79 2.6 5.2 0.00 0.00 0.00 79 1015.0
20260903143032 60 98 0.9 5.2 0.00 0.00 0.00 79 1015.0
20260903141531 59 108 1.7 5.2 0.00 0.00 0.00 80 1014.8
20260903140035 59 127 1.7 5.2 0.00 0.00 0.00 79 1014.7
20260903134537 59 99 0.9 3.5 0.00 0.00 0.00 79 1014.7
20260903133032 59 123 2.6 6.1 0.00 0.00 0.00 79 1014.7
20260903131526 59 89 1.7 5.2 0.00 0.00 0.00 78 1014.7
20260903130024 59 122 1.7 5.2 0.00 0.00 0.00 79 1014.8
20260903124524 59 99 1.7 4.3 0.00 0.00 0.00 79 1014.8
20260903123022 59 129 1.7 7.0 0.00 0.00 0.00 78 1014.8
20260903121543 59 123 1.7 7.0 0.00 0.00 0.00 78 1014.8
20260903120019 59 105 0.9 4.3 0.00 0.00 0.00 78 1014.9
20260903114518 59 105 1.7 4.3 0.00 0.00 0.00 78 1015.0
20260903113017 60 122 1.7 5.2 0.00 0.00 0.00 78 1015.2
20260903111514 60 89 0.9 5.2 0.00 0.00 0.00 78 1015.2
20260903110012 60 100 1.7 5.2 0.00 0.00 0.00 78 1015.2
20260903104512 60 143 2.6 6.1 0.00 0.00 0.00 79 1015.2
20260903103011 60 136 0.9 4.3 0.00 0.00 0.00 79 1015.2
20260903101509 60 124 0.9 5.2 0.00 0.00 0.00 78 1015.2
20260903100019 60 126 1.7 7.0 0.00 0.00 0.00 79 1015.2
20260903094506 60 131 1.7 6.1 0.00 0.00 0.00 78 1015.3
20260903093006 59 139 2.6 6.1 0.00 0.00 0.00 78 1015.3
20260903091503 60 103 1.7 5.2 0.00 0.00 0.00 77 1015.4
20260903090002 60 88 2.6 7.8 0.00 0.00 0.00 76 1015.5
20260903084603 60 97 1.7 6.1 0.00 0.00 0.00 74 1015.5
20260903083056 60 86 1.7 5.2 0.00 0.00 0.00 74 1015.4
20260903081554 61 142 1.7 5.2 0.00 0.00 0.00 74 1015.4
20260903080050 61 100 1.7 5.2 0.00 0.00 0.00 72 1015.4
20260903074548 62 86 0.0 6.1 0.00 0.00 0.00 71 1015.4
20260903073054 62 115 3.5 6.1 0.00 0.00 0.00 70 1015.4
20260903071543 63 123 0.0 5.2 0.00 0.00 0.00 69 1015.3
20260903070040 63 78 0.9 4.3 0.00 0.00 0.00 67 1015.3
20260903064539 64 89 0.9 4.3 0.00 0.00 0.00 66 1015.3
20260903063043 65 115 0.0 2.6 0.00 0.00 0.00 65 1015.3
20260903061540 65 105 0.0 2.6 0.00 0.00 0.00 64 1015.3
20260903060049 65 130 0.0 2.6 0.00 0.00 0.00 63 1015.4
20260903054537 66 115 0.0 2.6 0.00 0.00 0.00 63 1015.4
20260903053043 66 110 0.0 0.0 0.00 0.00 0.00 63 1015.4
20260903051539 67 105 0.0 0.0 0.00 0.00 0.00 61 1015.3
20260903050042 67 113 0.0 1.7 0.00 0.00 0.00 60 1015.4
20260903044539 68 122 0.0 0.0 0.00 0.00 0.00 60 1015.4
20260903043036 68 37 0.0 0.0 0.00 0.00 0.00 61 1015.3
20260903041537 67 37 0.0 0.0 0.00 0.00 0.00 62 1015.2
20260903040034 68 37 0.0 0.0 0.00 0.00 0.00 60 1015.0
20260903034534 68 37 0.0 0.0 0.00 0.00 0.00 60 1014.7
20260903033033 69 37 0.0 0.0 0.00 0.00 0.00 59 1014.5
20260903031540 70 37 0.0 0.0 0.00 0.00 0.00 58 1014.4
20260903030043 71 34 0.0 0.9 0.00 0.00 0.00 58 1014.3
20260903024530 72 296 0.0 0.9 0.00 0.00 0.00 58 1014.4
20260903023032 73 1 0.0 3.5 0.00 0.00 0.00 57 1014.4
20260903021540 74 338 0.0 0.0 0.00 0.00 0.00 55 1014.4
20260903020035 75 15 0.0 0.9 0.00 0.00 0.00 55 1014.4
20260903014527 76 302 0.0 0.9 0.00 0.00 0.00 54 1014.5
20260903013027 77 115 0.0 2.6 0.00 0.00 0.00 52 1014.6
20260903011533 77 327 0.0 2.6 0.00 0.00 0.00 52 1014.6
20260903010031 78 77 0.0 3.5 0.00 0.00 0.00 51 1014.6
20260903004529 78 301 0.0 4.3 0.00 0.00 0.00 51 1014.7
20260903003024 77 338 0.0 7.0 0.00 0.00 0.00 52 1014.8
20260903001523 78 256 0.0 5.2 0.00 0.00 0.00 51 1014.9
20260903000036 79 278 0.0 9.6 0.00 0.00 0.00 50 1014.9
20260902234518 79 181 0.0 3.5 0.00 0.00 0.00 51 1015.0
20260902233021 78 22 0.0 7.0 0.00 0.00 0.00 52 1015.1
20260902231518 79 300 0.0 3.5 0.00 0.00 0.00 51 1015.3
20260902230013 78 269 0.0 6.1 0.00 0.00 0.00 52 1015.3
20260902224512 77 6 0.9 7.0 0.00 0.00 0.00 52 1015.4
20260902223019 78 238 0.0 3.5 0.00 0.00 0.00 51 1015.6
20260902221510 78 192 0.9 6.1 0.00 0.00 0.00 50 1015.6
20260902220015 78 136 1.7 7.8 0.00 0.00 0.00 50 1015.7
20260902214517 78 46 0.9 5.2 0.00 0.00 0.00 51 1015.9
20260902213002 78 241 0.9 3.5 0.00 0.00 0.00 51 1016.1
20260902211601 77 141 0.9 3.5 0.00 0.00 0.00 52 1016.1
20260902210059 78 299 0.0 9.6 0.00 0.00 0.00 52 1016.3
20260902204557 76 250 1.7 11.3 0.00 0.00 0.00 53 1016.3
20260902203056 76 278 0.9 5.2 0.00 0.00 0.00 53 1016.5
20260902201556 77 96 0.0 2.6 0.00 0.00 0.00 53 1016.7
20260902200054 78 145 0.0 2.6 0.00 0.00 0.00 53 1016.8
20260902194553 76 281 0.9 7.0 0.00 0.00 0.00 53 1016.9
20260902193051 76 142 0.0 5.2 0.00 0.00 0.00 54 1017.1
20260902191549 73 120 0.0 5.2 0.00 0.00 0.00 57 1017.3
20260902190044 72 241 0.0 7.0 0.00 0.00 0.00 58 1017.5
20260902184546 72 167 0.0 3.5 0.00 0.00 0.00 59 1017.5
20260902183047 73 301 1.7 5.2 0.00 0.00 0.00 59 1017.5
20260902181543 73 247 1.7 5.2 0.00 0.00 0.00 58 1017.6
20260902180041 72 118 1.7 4.3 0.00 0.00 0.00 60 1017.5
20260902174549 71 132 0.0 2.6 0.00 0.00 0.00 62 1017.5
20260902173102 71 191 0.9 4.3 0.00 0.00 0.00 62 1017.6
20260902171542 70 120 0.9 3.5 0.00 0.00 0.00 63 1017.5
20260902170034 70 134 0.0 1.7 0.00 0.00 0.00 63 1017.4
20260902164531 67 85 0.9 5.2 0.00 0.00 0.00 67 1017.3